www.pogodaiklimat.ru

Погода и климат >> Архив погоды >> Россия >> Красноярский край >> Тасеево


ПОГОДА в Тасеево

  • Прогноз погоды в Тасеево
  • Монитор погоды в Тасеево

АРХИВ ПОГОДЫ в Тасеево

Время (UTC), дата Ветер
(напр.,м/с)
 
Видим.   Явления Облачность Т
(С)
Тd
(С)
f
(%)
Тe
(С)
Тes
(С)
Комфортность P
(гПа)
Po
(гПа)
Тmin
(С)
Tmax
(С)
R
(мм)
R24
(мм)
S
(см)
12 12.02 штиль 0 20 км 10/0
[Ci sp]
-29.8 -32.5 77 -30 -30 1036.2 1012.1 -23.2
15 12.02 штиль 0 20 км 3/0
[Ci fib]
-30.7 -33.7 75 -31 -31 опасность
обморожения
1036.6 1012.4
18 12.02 штиль 0 20 км ясно -29.3 -32.1 77 -29 -29 1036.7 1012.7
21 12.02 штиль 0 20 км ясно -29.2 -32.1 76 -29 -29 1037.1 1013.0
00 13.02 штиль 0 10 км слаб. снег 10/0
[Cs]
-27.3 -30.0 78 -27 -27 1037.3 1013.4 -32.1 0.0 72
03 13.02 штиль 0 10 км слаб. снег 10/0
[As op]
-23.1 -25.3 82 -23 -23 1037.3 1013.9
06 13.02 Ю 1 10 км слаб. снег 10/0
[Ac As]
-13.8 -17.2 75 -16 -15 1036.1 1013.5
09 13.02 Ю 1 10 км {снег} 9/0
[Ac As]
-12.0 -15.6 75 -14 -14 1035.0 1012.6
12 13.02 штиль 0 10 км слаб. снег 10/0
[Ac As]
-13.2 -14.9 87 -13 -13 1035.6 1013.1 -11.4 0.2
15 13.02 Ю 1 10 км слаб. снег 10/0
[Ac As]
-15.8 -16.7 93 -18 -18 1036.0 1013.2
18 13.02 Ю 1 10 км слаб. снег 10/0
[Ac As]
-15.3 -16.3 92 -18 -18 1036.1 1013.3
21 13.02 штиль 0 10 км слаб. снег 10/0
[Ac As]
-15.0 -15.9 93 -15 -15 1036.0 1013.3
00 14.02 штиль 0 20 км {снег} 10/0
[Cs]
-16.4 -17.5 91 -16 -16 1036.5 1013.7 -17.2 0.2 72
03 14.02 Ю 1 10 км дымка 10/0
[Cs]
-15.7 -16.8 91 -18 -17 1037.0 1014.2 -17.6
06 14.02 штиль 0 10 км дымка {снег} 10/0
[Ci sp]
-10.3 -13.4 78 -11 -8 1036.1 1013.8
09 14.02 штиль 0 20 км 4/0
[Ci fib]
-9.0 -13.4 70 -9 -9 1035.7 1013.6
12 14.02 Ю 1 20 км 10/0
[Ac trans Ci fib]
-14.3 -15.5 91 -17 -17 1036.0 1013.4 -6.5 0.0
15 14.02 штиль 0 20 км 10/0
[Ac trans Ci fib]
-15.2 -16.1 93 -15 -15 1036.0 1013.3
18 14.02 Ю 1 20 км 10/0
[Ac trans Ci sp]
-14.0 -14.9 93 -16 -16 1035.3 1012.7
21 14.02 Ю 1 н/о н/о -13.3 -14.0 94 -16 -16 1035.0 1012.5
00 15.02 штиль 0 н/о н/о -14.8 -15.6 94 -15 -15 1034.6 1011.9 -17.3 72
03 15.02 штиль 0 20 км 8/0
[Ci fib]
-15.8 -16.7 93 -16 -15 1034.4 1011.7 -19.3
06 15.02 Ю 1 20 км 10/0
[Ci sp]
-7.5 -12.2 69 -10 -7 1032.7 1010.8
09 15.02 Ю 2 20 км 9/0
[Ac und]
-6.0 -9.9 74 -10 -10 1031.5 1009.7
12 15.02 Ю 2 20 км 9/0
[Ac trans]
-6.1 -9.3 78 -10 -10 1030.6 1008.8 -5.6
15 15.02 Ю 1 20 км 4/0
[Ac trans]
-11.3 -11.8 96 -14 -14 1029.9 1007.6
18 15.02 Ю 1 20 км 5/0
[Ci fib]
-17.3 -18.3 92 -20 -20 1029.7 1007.0
21 15.02 ЮВ 1 20 км 6/0
[Ci fib]
-18.6 -19.9 89 -21 -21 1029.0 1006.1
00 16.02 штиль 0 20 км 6/0
[Ci fib]
-19.1 -20.4 89 -19 -19 1027.7 1004.9 -19.4 72
03 16.02 штиль 0 20 км 10/0
[Ac trans Ci sp]
-12.2 -12.7 96 -12 -11 1025.9 1003.6
06 16.02 Ю 2 50 км 4/0
[Ci fib]
-3.0 -10.2 58 -7 -4 1023.0 1001.6
09 16.02 ЮЗ 2 50 км 8/0
[Ci fib]
-3.4 -10.7 57 -7 -6 1021.6 1000.2
12 16.02 Ю 2 20 км 10/0
[Ac trans Ci sp]
-2.3 -10.4 54 -6 -6 1020.3 999.0 -1.4
15 16.02 Ю 3 20 км 10/0
[Cs]
-2.4 -10.2 55 -7 -7 1018.2 996.9
18 16.02 З 5 20 км 10/0
[Ci fib]
-2.3 -10.1 55 -8 -8 1016.8 995.6
21 16.02 З 7-10
{12}
10 км позёмок 10/0
[Ci fib]
-2.0 -6.9 69 -9 -9 1016.7 995.5
00 17.02 З 4
{10}
10 км позёмок 10/0
[Ci sp]
-4.4 -8.6 72 -10 -10 1017.0 995.6 -4.4 72
03 17.02 З 5
{10}
20 км позёмок 10/0
[Ci sp]
-4.2 -8.6 71 -11 -10 1017.6 996.3 -4.4
06 17.02 З 4 10 км слаб. ливневой снег {метель} 10/6 600 м
[Cb cap Cs]
-3.1 -7.6 71 -9 -8 1016.9 995.6
09 17.02 З 1 20 км {ливн. осадки} 10/4 600 м
[Sc diur, vesp Ci fib]
-3.2 -9.1 64 -5 -5 1015.9 994.6
12 17.02 штиль 0 20 км {ливн. осадки} 8/0
[Ci fib]
-12.1 -13.2 91 -12 -12 1015.7 993.7 -2.7 0.0
15 17.02 штиль 0 20 км 10/0
[Cs]
-13.0 -13.5 96 -13 -13 1014.2 992.1
18 17.02 штиль 0 20 км 10/0
[Ac trans Cs]
-12.5 -13.0 96 -13 -13 1012.6 990.7
21 17.02 штиль 0 20 км 10/0
[Ac As]
-9.3 -9.7 97 -10 -10 1010.8 989.1
00 18.02 Ю 1 20 км 10/0
[Ac As]
-5.5 -10.0 71 -8 -8 1009.6 988.3 -15.2 72
03 18.02 Ю 2 20 км 10/0
[As op Ci sp]
-4.2 -10.5 61 -8 -7 1009.7 988.5
06 18.02 Ю 2 20 км 10/0
[Ac lent Ci sp]
+0.2 -10.6 44 -3 -1 1008.0 987.1
09 18.02 Ю 2 20 км 10/0
[Ci sp]
+1.3 -10.9 40 -1 -1 1006.9 986.1
12 18.02 Ю 2 20 км 10/0
[Cs]
-2.2 -11.0 51 -5 -5 1007.1 986.1 +1.8
15 18.02 З 1 20 км 10/0
[Cs]
-1.2 -9.2 54 -3 -3 1007.3 986.8
18 18.02 З 4
{11}
20 км 10/0
[As op]
+0.7 -5.5 63 -4 -4 1007.6 986.8
21 18.02 З 5
{10}
10 км слаб. снег 10/0 2000 м
[As op]
-0.6 -3.0 84 -7 -7 1008.9 988.0
00 19.02 ЮЗ 4 20 км {снег} 10/0 2000 м
[As op]
-0.4 -3.1 82 -6 -6 1010.0 989.1 -1.5 0.0 71
03 19.02 ЮЗ 3 10 км слаб. снег 10/0
[As op]
-0.6 -1.5 94 -6 -5 1012.1 991.1
06 19.02 З 5 10 км слаб. ливневой снег 10/10 600 м
[Cb cap]
+0.4 -1.3 88 -6 -6 1013.6 992.7

 

Местоположение метеостанции Тасеево (Красноярский край, Россия): широта 57.20 долгота 94.55 высота над уровнем моря 165 м.

В архиве по умолчанию представлена погода в Тасеево за последнюю неделю. Архивные данные за месяц целиком и за предыдущие месяцы, начиная с января 2011 года, Вы можете получить, выбрав интересующий диапазон дат из раскрывающегося списка и нажав кнопку "Ввод!".


*Определитесь, кто Вы:
робот инопланетянин человек

Внимание! Время в таблицах - всемирное. Для получения местного времени необходимо прибавить поправку, которая равна 7 ч.

Смотрите также архив погоды в соседних городах и на ближайших метеорологических станциях:

Погода в Дзержинском (Красноярский край, Россия) (56 км)
Погода в Большой Мурте (Красноярский край, Россия) (92 км)
Погода в Казачинском (Красноярский край, Россия) (93 км)
Погода в Абане (Красноярский край, Россия) (106 км)
Погода в Мотыгино (Красноярский край, Россия) (109 км)
Погода в Сухобузимском (Красноярский край, Россия) (110 км)
Погода в Солянке (Красноярский край, Россия) (123 км)
Погода в Железногорске (Красноярский край, Россия) (123 км)
Погода в Канске (Красноярский край, Россия) (129 км)
Погода в Погорельском Бору (Красноярский край, Россия) (134 км)

Пояснения к столбцам:

Ветер - указаны скорость ветра в м/с - средняя за 10 мин, порывы в срок и между сроками (в фигурных скобках) и направление, откуда дует ветер: С - северный, СВ - северо-восточный, В - восточный, ЮВ - юго-восточный, Ю - южный, ЮЗ - юго-западный, З - западный, СЗ - северо-западный.
Видимость - горизонтальная дальность видимости в метрах или километрах. При видимости от 1 до 10 км при отсутствии осадков обычно наблюдается дымка, при ухудшении видимости до 1 км и менее - туман. В сухую погоду видимость может ухудшаться дымом, пылью или мглою.
Явления - указаны атмосферные явления, наблюдавшиеся в срок или в последний час перед сроком; фигурными скобками обозначены явления, наблюдавшиеся между сроками (за 1-3 часа до срока); квадратными скобками обозначены град или гололедные отложения с указанием их диаметра в мм.
Облачность - указаны через наклонную черту общая и нижняя облачность в баллах и высота нижней границы облаков в метрах; квадратными скобками обозначены формы облаков: Ci - перистые, Cs - перисто-слоистые, Cc - перисто-кучевые, Ac - высококучевые, As - высокослоистые, Sc - слоисто-кучевые, Ns - слоисто-дождевые, Cu - кучевые, Cb - кучево-дождевые. Подробнее классификацию облаков см. в Атласе облаков (PDF).
T - Температура воздуха - температура, измеренная на высоте 2 м над землей.
Td - Температура точки росы - температура, при понижении до которой содержащийся в воздухе водяной пар достигнет насыщения.
f - Относительная влажность воздуха - влажноcть воздуха, измеренная на высоте 2 м над землей.
Te - Эффективная температура - температура, которую ощущает одетый по сезону человек в тени. Характеристика душности погоды. При расчете учитывается влияние влажности воздуха и скорости ветра на теплоощущения человека.
Tes - Эффективная температура на солнце - температура, которую ощущает человек, с поправкой на солнечный нагрев. Характеристика знойности погоды. Зависит от высоты солнца над горизонтом, облачности и скорости ветра. Ночью, в пасмурную погоду, а также при ветре 12 м/с и более поправка равна нулю.
P - Атмосферное давление - приведенное к уровню моря атмосферное давление.
Po - Атмосферное давление - измеренное на уровне метеостанции атмосферное давление.
Tmin - Минимальная температура - минимум температуры воздуха на высоте 2 м над землей.
Tmax - Максимальная температура - максимум температуры воздуха на высоте 2 м над землей.
R - Количество осадков - Количество выпавших осадков за период времени, мм. При наведении курсора мыши на число - период времени, за который выпало указанное количество осадков.
R24 - Количество осадков - Количество выпавших осадков за 24 часа, мм.
S - Снежный покров - Высота снежного покрова, см. При наведении курсора мыши на число - состояние снежного покрова и степень покрытия местности в баллах.